Wind_Speed
29 32 31 30 29 30 31 32 33 32 32 31 29 30 30 37 23 38 37 36 35 31 22 21 24 18 18 24 21 23 25 25 22 17 15 12 13 18 16 17 17 19 24 28
30 29 32 32 31 30 31 34 38 33 35 33 30 31 35 35 37 30 33 31 34 33 35 34 27 19 29 30 28 33 25 26 25 22 19 13 23 19 20 22 24 24 25 24
29 30 29 32 33 32 32 32 32 35 36 36 39 39 36 40 37 32 32 34 36 38 34 33 29 32 36 34 30 31 29 27 28 19 19 24 25 18 11 15 21 19 17 20
27 29 29 31 33 34 34 33 35 39 36 39 37 39 41 46 39 34 37 37 35 33 34 35 34 32 27 38 34 32 29 33 30 25 26 17 12 15 11 16 15 20 19 25
27 27 29 30 32 33 36 37 39 33 36 39 40 42 41 44 40 38 39 39 39 37 37 37 41 43 36 37 38 34 37 33 32 29 24 23 23 22 23 24 18 19 24 25
28 28 28 30 31 32 33 35 38 36 39 36 38 39 41 41 39 44 45 47 43 40 44 47 47 46 44 51 39 36 36 32 33 28 26 23 25 22 22 23 20 22 19 23
28 30 29 28 31 32 32 34 36 37 38 35 34 36 40 43 42 46 47 45 43 54 49 45 44 41 41 39 35 36 35 35 32 29 26 27 18 22 22 24 16 18 19 31
26 29 31 30 29 31 32 32 33 34 36 39 39 41 44 45 46 44 45 41 45 44 41 39 41 43 42 39 37 37 39 36 32 29 28 26 21 28 23 14 17 24 26 31
26 27 30 32 31 31 31 32 33 34 37 41 43 46 45 41 41 39 41 44 44 35 38 41 42 43 40 41 40 39 38 37 34 30 32 32 24 23 22 17 21 32 30 34
24 26 28 31 31 31 31 31 31 33 35 39 37 40 42 43 45 43 42 44 42 41 40 40 40 39 38 39 38 39 39 37 35 32 34 34 30 31 39 37 27 29 26 31
20 25 27 29 31 31 32 31 30 31 34 37 34 37 38 41 42 41 46 46 42 38 42 42 39 38 35 36 36 23 31 35 36 33 35 36 33 36 43 35 26 28 31 32
18 22 25 28 29 30 31 31 30 30 32 33 34 37 38 39 38 38 44 44 39 40 39 41 41 40 37 30 26 32 31 30 29 31 31 38 41 42 35 33 34 33 30 28
18 20 24 28 28 29 29 30 29 29 30 31 33 35 36 38 39 41 42 44 45 45 41 38 37 41 39 36 27 30 31 39 37 34 34 39 42 40 38 36 34 31 33 33
18 18 22 26 28 28 28 27 27 27 27 28 31 31 33 35 37 40 43 44 41 38 36 39 39 38 40 35 30 31 42 36 34 38 41 42 33 41 36 36 34 36 35 38
17 17 21 24 27 28 27 26 24 25 25 25 26 26 29 32 34 37 40 42 41 41 40 42 41 40 44 44 46 34 34 41 27 32 43 48 46 27 35 38 36 37 35 37
17 18 22 23 26 28 27 25 23 21 21 23 24 24 25 28 31 34 37 38 39 41 42 43 42 45 46 45 43 45 44 44 48 47 45 43 44 41 42 43 41 39 36 39
17 18 21 25 26 27 26 23 23 20 20 20 20 21 21 23 25 28 31 34 34 37 39 43 44 46 49 48 47 48 48 51 50 47 45 44 46 41 40 40 44 44 40 40
17 18 20 26 26 27 25 23 22 20 20 18 16 16 15 17 20 22 25 28 30 33 35 38 41 43 47 45 44 45 46 49 50 48 47 48 48 48 46 39 45 45 41 40
18 18 21 25 27 27 25 23 21 20 18 16 15 11 10 13 16 16 18 22 25 27 29 34 37 39 44 43 43 42 46 49 50 47 45 46 46 47 48 48 50 45 42 40
19 19 21 26 29 27 24 23 22 19 18 17 16 13 6 10 12 12 12 13 17 22 25 28 32 33 35 37 38 39 43 45 45 44 43 46 49 52 51 49 49 47 47 41
20 20 23 27 31 28 25 24 22 20 18 16 15 13 14 14 13 12 11 13 14 15 17 17 17 18 26 26 32 29 29 35 37 39 42 43 45 46 45 50 46 46 43 39
19 20 26 28 31 27 25 24 22 20 18 16 13 11 13 14 14 15 12 13 9 11 14 17 17 20 16 23 23 26 29 31 33 34 35 36 39 41 43 47 43 46 42 37
20 24 27 28 30 26 24 23 22 21 18 17 15 13 11 12 13 15 17 14 13 16 16 17 21 20 21 24 27 28 28 28 30 31 32 33 36 37 38 38 41 37 36 36
22 26 27 28 28 26 25 24 22 21 21 18 13 11 11 13 14 13 13 13 12 11 11 16 16 18 21 21 21 19 20 22 24 26 28 32 33 34 36 40 38 41 35 35
25 29 27 28 28 26 22 20 21 22 19 16 14 13 13 12 12 12 11 12 12 12 15 16 15 14 14 17 18 20 23 26 28 31 31 32 31 32 33 35 37 42 37 39
27 27 28 28 25 22 21 20 21 19 17 16 14 14 12 14 15 13 14 12 16 15 15 11 13 15 18 22 24 25 25 25 22 23 25 26 25 26 27 26 28 38 37 31
27 26 26 26 24 23 20 18 20 18 16 15 13 13 13 15 15 15 16 16 17 14 11 12 14 20 22 18 18 17 15 12 14 15 14 18 20 20 19 29 19 33 40 43
Wind_Direction
240 236 236 233 228 226 225 223 222 216 214 217 215 209 204 204 207 214 219 215 198 192 197 221 215 215 218 237 196 237 223 227 224 226 273 290 268 230 236 272 268 260 270 275
241 237 234 233 231 225 224 223 222 217 218 214 214 209 206 214 219 210 210 212 214 215 191 200 202 186 214 216 216 208 223 222 229 238 245 260 261 271 248 251 259 249 255 267
241 237 234 233 230 228 225 225 224 223 216 215 213 208 206 219 219 209 206 206 209 214 216 222 217 209 221 226 226 229 232 231 233 225 253 246 234 253 271 248 254 263 264 279
242 239 233 233 231 226 225 224 222 221 219 220 214 219 212 217 223 213 217 215 213 211 216 227 221 226 229 239 236 237 243 241 242 240 232 251 260 284 277 277 284 268 243 255
240 238 236 231 230 228 224 225 228 223 221 223 220 216 218 223 221 220 225 224 223 223 223 219 223 229 231 249 237 233 239 243 243 245 252 241 253 252 260 251 246 258 275 261
239 236 234 231 228 228 228 225 228 224 224 222 221 225 224 227 225 228 228 227 224 227 226 222 224 228 221 231 235 233 236 240 248 252 254 252 240 237 252 260 257 250 270 269
237 236 233 230 228 226 225 224 224 222 226 223 222 221 224 226 223 223 226 227 226 227 229 230 231 233 236 240 240 241 238 249 252 252 250 249 255 221 245 237 260 245 249 274
236 234 233 230 228 225 222 221 222 222 224 223 218 221 221 224 228 231 234 228 231 232 238 239 234 232 238 239 239 236 240 248 248 246 249 252 229 230 229 232 249 243 236 251
239 232 230 229 228 227 224 222 221 220 223 225 227 226 224 226 231 229 233 234 231 231 233 232 230 232 238 238 239 240 243 246 245 245 247 249 248 216 248 227 230 245 243 245
244 234 228 226 225 225 225 224 222 223 225 228 228 229 229 226 229 228 229 233 230 227 228 230 232 232 236 238 242 244 245 247 248 246 247 246 247 217 238 234 234 247 254 245
250 238 229 223 222 225 225 225 225 226 228 230 227 229 230 228 230 231 233 234 231 229 229 230 230 231 233 237 233 237 257 249 247 246 245 244 244 235 231 248 247 244 259 258
253 239 233 222 220 222 225 225 225 227 229 231 229 229 229 230 229 232 236 239 237 232 230 229 230 230 229 226 236 229 227 248 249 249 246 244 241 247 249 251 251 254 260 264
251 241 233 224 216 219 223 225 226 227 228 230 230 229 230 230 231 233 236 235 234 231 231 238 235 229 226 230 240 221 231 240 244 247 254 253 252 247 254 253 251 253 259 260
249 241 229 225 216 215 218 222 224 226 227 230 229 231 232 233 232 233 235 237 235 236 236 236 232 227 222 212 223 231 231 241 241 246 248 246 232 249 251 251 250 250 252 258
247 238 226 222 215 211 213 218 221 222 224 230 234 233 235 237 236 235 235 236 234 232 231 231 231 232 233 229 225 219 223 225 226 220 241 249 246 260 256 258 255 255 254 257
245 235 222 219 213 208 208 213 216 217 221 225 233 233 237 238 238 237 236 235 233 232 230 230 231 232 234 234 233 224 219 233 237 237 245 249 256 253 251 252 256 258 254 257
243 234 221 215 211 206 204 205 209 213 214 219 231 234 234 235 235 234 234 234 232 231 229 229 230 231 233 235 236 239 237 241 246 247 248 252 252 260 260 258 258 256 256 257
237 231 221 211 207 203 201 202 206 207 209 215 227 236 228 235 233 233 232 232 231 230 229 229 230 231 237 238 237 239 241 244 244 245 247 247 250 253 256 264 259 256 256 255
232 227 219 207 201 199 198 199 202 204 206 209 210 208 237 233 234 236 235 232 230 228 226 227 230 230 236 238 237 236 240 242 246 248 248 252 254 257 255 245 257 263 259 257
228 223 216 202 197 197 198 197 198 201 201 204 209 205 196 210 220 219 217 222 227 231 230 228 231 233 238 241 241 238 242 247 249 249 249 248 248 250 254 254 255 256 259 260
223 218 207 196 195 197 196 195 195 196 196 200 206 212 215 221 221 221 227 230 226 227 226 227 234 232 235 236 240 242 241 244 249 250 251 251 250 252 256 255 255 254 254 255
215 208 199 193 194 196 196 194 194 194 192 196 204 203 212 218 213 217 208 222 207 220 224 227 229 231 232 251 244 241 242 245 247 249 250 251 251 250 249 253 253 252 251 244
205 199 191 190 193 195 195 194 196 194 194 200 207 214 219 216 210 211 210 226 223 234 241 246 244 251 248 248 250 252 252 253 253 254 255 257 256 253 252 250 248 246 242 235
195 192 185 189 188 193 195 195 195 196 202 205 210 220 221 220 218 222 224 228 236 243 241 242 248 253 248 252 254 251 249 253 258 262 264 266 267 264 258 251 245 243 229 214
189 182 182 184 189 192 191 193 199 204 206 212 221 220 224 221 221 229 229 227 238 237 240 243 247 252 250 254 266 272 272 266 269 260 269 268 260 263 262 256 249 240 235 221
181 181 181 183 184 184 188 193 201 205 210 219 223 224 230 222 226 233 236 234 229 234 245 248 250 256 274 279 280 280 278 277 276 269 264 257 257 252 253 257 255 240 228 218
172 173 180 180 184 184 187 192 202 203 209 209 210 213 224 228 222 221 229 229 230 235 245 263 275 277 281 284 284 283 273 264 272 271 267 254 253 248 233 225 192 218 215 218
Height
5750 5754 5758 5762 5767 5772 5777 5780 5784 5789 5794 5800 5805 5810 5819 5821 5825 5830 5838 5844 5846 5854 5862 5866 5869 5877 5878 5880 5885 5887 5888 5891 5894 5897 5898 5898 5898 5901 5902 5901 5902 5903 5902 5899
5742 5746 5750 5755 5760 5765 5770 5773 5777 5784 5788 5794 5801 5807 5812 5815 5819 5825 5831 5837 5844 5848 5850 5856 5863 5868 5869 5869 5878 5876 5881 5885 5887 5891 5895 5896 5895 5895 5895 5895 5895 5895 5894 5895
5734 5738 5742 5747 5752 5758 5763 5767 5772 5775 5781 5787 5791 5796 5805 5809 5812 5820 5824 5830 5834 5841 5847 5852 5858 5862 5861 5865 5870 5874 5878 5880 5882 5888 5889 5887 5889 5890 5890 5891 5891 5891 5894 5893
5727 5731 5735 5740 5744 5750 5756 5759 5762 5765 5774 5778 5786 5792 5797 5800 5806 5815 5818 5824 5831 5837 5841 5845 5850 5855 5856 5859 5865 5870 5872 5873 5876 5880 5881 5884 5887 5887 5889 5888 5887 5887 5889 5885
5721 5724 5728 5732 5737 5741 5746 5751 5754 5763 5766 5772 5778 5782 5789 5794 5802 5807 5813 5819 5825 5829 5833 5840 5844 5846 5853 5846 5856 5861 5865 5868 5870 5873 5876 5877 5881 5883 5884 5884 5884 5885 5883 5882
5714 5718 5722 5726 5729 5734 5739 5745 5749 5755 5758 5766 5772 5777 5782 5788 5795 5798 5803 5807 5815 5821 5823 5825 5826 5833 5840 5835 5848 5855 5858 5861 5863 5867 5869 5870 5871 5875 5878 5878 5878 5879 5879 5877
5707 5711 5715 5719 5723 5727 5731 5737 5741 5748 5752 5759 5765 5769 5773 5777 5783 5786 5790 5798 5806 5799 5810 5819 5827 5832 5836 5839 5845 5848 5851 5854 5857 5859 5860 5861 5868 5869 5867 5871 5873 5874 5874 5860
5699 5703 5708 5712 5716 5720 5724 5729 5734 5740 5743 5749 5754 5758 5762 5768 5773 5782 5785 5791 5791 5801 5809 5816 5819 5824 5827 5832 5836 5840 5844 5847 5849 5851 5853 5857 5861 5860 5863 5862 5868 5864 5864 5856
5692 5695 5699 5704 5708 5713 5718 5722 5727 5732 5735 5738 5746 5750 5754 5763 5766 5773 5777 5782 5787 5797 5800 5803 5808 5814 5821 5824 5829 5833 5836 5838 5841 5845 5845 5848 5854 5857 5850 5852 5855 5853 5857 5852
5685 5688 5692 5696 5701 5705 5710 5714 5719 5724 5727 5732 5739 5743 5748 5753 5756 5762 5767 5771 5779 5785 5791 5795 5801 5808 5813 5816 5820 5823 5826 5829 5832 5837 5837 5841 5845 5849 5842 5844 5848 5848 5852 5852
5679 5681 5684 5688 5693 5698 5703 5708 5711 5716 5720 5725 5732 5735 5740 5745 5750 5755 5757 5763 5771 5779 5783 5788 5794 5799 5804 5808 5813 5817 5816 5820 5824 5828 5829 5832 5836 5837 5836 5840 5842 5843 5843 5843
5673 5675 5678 5681 5686 5691 5696 5701 5705 5709 5713 5719 5721 5726 5732 5737 5743 5748 5751 5757 5765 5770 5775 5779 5785 5790 5796 5801 5805 5809 5810 5813 5815 5820 5821 5820 5823 5824 5831 5835 5835 5837 5838 5839
5668 5669 5671 5675 5679 5684 5690 5694 5699 5703 5706 5710 5714 5718 5724 5728 5734 5739 5744 5747 5754 5758 5766 5772 5779 5782 5788 5789 5796 5800 5801 5805 5809 5810 5811 5810 5816 5820 5823 5826 5827 5829 5829 5830
5663 5663 5665 5669 5673 5678 5684 5688 5693 5697 5700 5703 5707 5711 5716 5720 5725 5730 5734 5739 5747 5753 5759 5762 5768 5772 5775 5784 5787 5789 5789 5793 5800 5804 5802 5803 5781 5808 5814 5817 5820 5820 5823 5823
5657 5658 5660 5664 5668 5673 5678 5683 5687 5691 5696 5698 5702 5705 5709 5712 5716 5721 5725 5730 5737 5742 5747 5751 5758 5762 5765 5772 5775 5783 5779 5785 5788 5789 5788 5790 5798 5796 5806 5807 5810 5811 5815 5815
5652 5653 5656 5659 5664 5669 5673 5679 5683 5687 5690 5693 5696 5700 5702 5706 5709 5712 5716 5720 5726 5731 5736 5742 5747 5750 5756 5761 5767 5773 5771 5770 5775 5781 5782 5786 5788 5792 5794 5797 5799 5803 5807 5806
5647 5649 5651 5655 5660 5665 5670 5676 5679 5683 5686 5689 5691 5694 5697 5699 5701 5705 5708 5711 5716 5721 5726 5731 5736 5739 5744 5749 5754 5757 5761 5763 5766 5773 5778 5779 5779 5779 5786 5790 5789 5791 5798 5798
5642 5644 5647 5651 5656 5661 5667 5671 5675 5679 5682 5686 5688 5690 5694 5695 5697 5699 5701 5705 5708 5712 5717 5722 5726 5730 5734 5740 5745 5747 5749 5751 5756 5762 5764 5766 5768 5772 5775 5779 5777 5780 5786 5788
5637 5640 5643 5647 5653 5658 5663 5667 5672 5676 5681 5683 5686 5688 5691 5692 5693 5696 5698 5700 5703 5706 5710 5714 5718 5722 5724 5728 5732 5736 5738 5741 5745 5750 5754 5757 5759 5760 5764 5768 5768 5769 5775 5780
5633 5636 5640 5644 5649 5655 5660 5665 5669 5673 5677 5680 5683 5687 5688 5689 5691 5693 5696 5697 5699 5701 5705 5707 5710 5714 5717 5719 5721 5726 5728 5731 5736 5740 5744 5744 5745 5745 5750 5755 5757 5760 5761 5768
5628 5632 5636 5641 5647 5652 5657 5662 5667 5671 5675 5678 5681 5684 5686 5687 5689 5692 5693 5695 5697 5699 5701 5704 5706 5708 5708 5711 5712 5718 5719 5721 5723 5726 5728 5730 5732 5735 5738 5739 5745 5747 5752 5757
5625 5629 5633 5638 5645 5651 5656 5660 5665 5669 5673 5676 5679 5681 5683 5684 5687 5689 5691 5693 5694 5696 5698 5699 5702 5702 5704 5705 5707 5708 5710 5712 5713 5715 5717 5719 5721 5723 5725 5727 5732 5734 5740 5745
5622 5626 5631 5637 5644 5650 5655 5659 5664 5667 5671 5674 5676 5678 5680 5682 5685 5686 5688 5690 5692 5693 5694 5696 5695 5697 5699 5699 5700 5701 5703 5704 5705 5706 5706 5708 5710 5712 5714 5718 5719 5724 5728 5735
5620 5624 5631 5637 5643 5649 5652 5657 5662 5666 5669 5671 5674 5677 5678 5680 5681 5684 5685 5687 5688 5689 5690 5690 5690 5691 5692 5693 5693 5694 5696 5696 5697 5697 5698 5698 5698 5699 5702 5706 5711 5712 5720 5726
5618 5624 5630 5636 5642 5647 5652 5657 5660 5663 5667 5670 5672 5674 5676 5678 5680 5681 5683 5684 5685 5685 5685 5685 5687 5687 5688 5687 5687 5687 5688 5687 5687 5686 5687 5686 5687 5688 5691 5695 5699 5705 5711 5719
5618 5625 5630 5636 5642 5646 5651 5654 5658 5661 5665 5668 5670 5672 5674 5675 5677 5679 5679 5681 5681 5682 5682 5683 5684 5683 5682 5682 5681 5680 5679 5678 5677 5676 5675 5676 5677 5679 5683 5688 5691 5695 5703 5709
5619 5625 5631 5636 5641 5645 5650 5654 5656 5659 5663 5665 5667 5669 5671 5673 5674 5676 5677 5678 5678 5679 5680 5680 5680 5678 5676 5674 5672 5671 5671 5670 5670 5669 5669 5669 5669 5671 5673 5671 5666 5670 5689 5690